[[{"header":{"parameterUnit":"m.s-1","parameterCategory":1,"la1":30.2991,"la2":30.254,"lo1":-89.0895,"lo2":-89.0444,"dy":0.0017,"dx":0.0017,"nx":28,"ny":28,"refTime":"2025-08-13T09:00:00:Z","depth":0,"parameterNumber":2,"parameterNumberName":"U-component_of_WINDS"},"data":[0,0,0,0,0,0,0,0,0,0,0,0,0,0,0,0,0,0,0,0,0,0,0,0,0,0,0,0,0,0,0,0,0,0,0,0,0,0,0,0,0,0,0,0,0,0,0,0,0,0,0,0,0,0,0,0,0,0,2.4451,2.4452,0,2.4565,2.4566,2.4567,2.4541,2.4539,2.4537,2.4535,2.4655,2.466,2.4665,0,0,0,0,0,0,0,0,0,0,0,0,0,2.4214,2.4219,2.4451,2.4453,2.4454,2.4565,2.4566,2.4568,2.4542,2.4539,2.4536,2.4534,2.4653,2.4659,2.4665,0,0,0,0,0,0,0,0,0,0,0,0,0,2.4321,2.422,2.4451,2.4454,2.4456,2.4564,2.4566,2.4568,2.4542,2.4539,2.4536,2.4533,2.4651,2.4658,2.4666,2.4779,0,0,2.469,2.4693,0,0,0,0,0,0,0,0,2.4315,2.433,2.4452,2.4454,2.4456,2.4535,2.4526,2.4639,2.4543,2.451,2.4535,2.4531,2.4618,2.4628,2.4657,2.4785,2.479,2.4691,2.4695,2.4699,2.4701,0,0,0,0,0,0,0,2.4308,2.4325,2.4496,2.4454,2.4456,2.4451,2.4463,2.4548,2.4581,2.4512,2.4511,2.4524,2.4618,2.4649,2.4659,2.4792,2.469,2.4697,2.4702,2.4705,2.5018,2.5022,0,0,0,0,0,0,2.4299,2.4319,2.4493,2.45,2.4376,2.4458,2.4471,2.4513,2.458,2.4586,2.4527,2.4523,2.4637,2.465,2.4663,2.48,2.4699,2.4706,2.471,2.5015,2.5019,2.5023,0,0,0,0,0,0,2.4294,2.4314,2.4488,2.4409,2.4431,2.4465,2.4513,2.4517,2.4548,2.4591,2.4597,2.4552,2.4635,2.4652,2.475,2.4804,2.4709,2.4717,2.501,2.5016,2.5021,2.5074,0,0,0,0,0,0,2.4287,2.4313,2.4355,2.441,2.4435,2.4572,2.4517,2.4522,2.4561,2.4557,2.4616,2.4623,2.4634,2.4739,2.4758,2.4813,2.4723,2.5006,2.5013,2.5019,2.5068,2.5081,2.5092,0,0,0,0,0,2.4278,2.4367,2.4358,2.4379,2.4489,2.4576,2.459,2.46,2.4566,2.4609,2.4637,2.4621,2.4795,2.4749,2.4771,2.4828,2.5002,2.5011,2.5019,2.5062,2.5078,2.5091,0,0,0,0,0,0,2.4319,2.4374,2.4365,2.4473,2.452,2.4571,2.4626,2.4617,2.4675,2.4668,2.468,2.4693,2.4793,2.4821,2.4769,2.4941,2.4894,2.4907,2.4919,2.4935,2.4947,2.4938,2.4729,0,0,0,0,0,2.434,2.4405,2.445,2.4541,2.4565,2.4592,2.463,2.4634,2.4683,2.4703,2.4737,2.4786,2.4852,2.4895,2.4958,2.5072,2.5084,2.5122,2.5134,2.5143,2.5155,2.5216,2.5234,2.505,2.505,2.505,0,0,2.4385,2.4423,2.4464,2.455,2.4587,2.4654,2.4609,2.4682,2.4732,2.4714,2.4808,2.4835,2.4891,2.4997,2.5046,2.5023,2.5208,2.5154,2.5161,2.5167,2.5227,2.5244,2.5259,2.5055,2.5054,2.5054,0,0,2.4502,2.4537,2.4617,2.4654,2.4709,2.4726,2.4745,2.4798,2.4815,2.4909,2.4897,2.4958,2.507,2.511,2.5145,2.5276,2.5264,2.5297,2.5359,2.5419,2.5434,2.5447,2.5493,2.551,2.5307,2.5308,2.5308,0,2.4551,2.4651,2.4659,2.4734,2.4772,2.4757,2.4838,2.4874,2.4948,2.4975,2.4949,2.5089,2.5126,2.5241,2.5273,2.5302,2.5324,2.529,2.5431,2.5444,2.5456,2.5501,2.5518,2.5311,2.5311,2.531,2.531,0,2.4709,2.4779,2.4837,2.4907,2.4952,2.5029,2.5049,2.5094,2.5093,2.5114,2.521,2.5253,2.5324,2.5351,2.5353,2.5467,2.5451,2.5428,2.538,2.5477,2.5519,2.5536,2.5316,2.5315,2.5314,2.5313,0,0,2.4855,2.4927,2.4949,2.498,2.5039,2.5094,2.5171,2.5238,2.5277,2.5328,2.5393,2.5488,2.5466,2.5506,2.5512,2.5565,2.5665,2.5535,2.5536,2.5557,2.5793,2.581,2.583,2.5657,2.566,2.5663,2.5789,0,2.4977,2.5111,2.512,2.5241,2.5305,2.5292,2.5359,2.5403,2.5424,2.5482,2.5505,2.5572,2.5539,2.5563,2.5615,2.5642,2.5713,2.5633,2.5718,2.5721,2.5704,2.5852,2.587,2.5987,2.5805,2.5808,2.581,0,2.5137,2.5191,2.5319,2.5368,2.5396,2.5455,2.5518,2.5574,2.5624,2.5635,2.5679,2.5677,2.5756,2.5706,2.5816,2.5761,2.5797,2.5815,2.582,2.5828,2.5771,2.5864,2.6024,2.6041,2.5836,2.5834,2.5832,0,2.523,2.5335,2.5425,2.5452,2.5512,2.5555,2.5582,2.5628,2.5669,2.5724,2.575,2.5814,2.585,2.59,2.5915,2.5877,2.6025,2.5975,2.6037,2.6036,2.6068,2.6066,2.6236,2.6092,2.6091,2.6091,2.6091,0,2.5365,2.5444,2.5467,2.5523,2.561,2.562,2.5706,2.5731,2.5773,2.5833,2.5826,2.5883,2.59,2.596,2.5973,2.6061,2.6078,2.6089,2.6092,2.609,2.6089,2.6113,2.6106,2.6096,2.6095,2.6094,2.6093,0,2.5484,2.5503,2.56,2.5648,2.5662,2.5725,2.5767,2.582,2.5839,2.5916,2.5934,2.5965,2.6035,2.6055,2.614,2.6149,2.6253,2.6248,2.6236,2.6236,2.6296,2.629,2.6488,2.6514,2.6352,2.6354,2.6355,0,2.5569,2.5629,2.5683,2.5722,2.5751,2.5814,2.5855,2.5866,2.5909,2.597,2.6016,2.6085,2.6141,2.6254,2.6284,2.6349,2.6346,2.6411,2.6356,2.6352,2.6347,2.6343,2.6349,2.6421,2.6423,2.6424,2.6425,0,2.5718,2.5724,2.5782,2.5843,2.5891,2.594,2.5987,2.602,2.6038,2.6087,2.6157,2.6201,2.6286,2.6355,2.6421,2.645,2.6441,2.6442,2.646,2.6459,2.6449,2.6455,2.6264,2.6438,2.6437,2.6436,2.6435,2.6435,2.5822,2.5874,2.592,2.5985,2.6021,2.6065,2.6117,2.6142,2.6201,2.6271,2.6274,2.6352,2.64,2.6486,2.6519,2.658,2.6561,2.6587,2.6593,2.6599,2.6604,2.6439,2.6592,2.6592,2.6591,2.6591,2.6591,0,2.597,2.5999,2.6058,2.6123,2.6174,2.6159,2.6211,2.6255,2.6322,2.6367,2.6421,2.6503,2.6569,2.6604,2.6671,2.6713,2.671,2.673,2.6727,2.6734,2.6617,2.6595,2.673,2.673,2.673,2.673,2.673,2.673,2.6053,2.614,2.6152,2.6257,2.6285,2.6359,2.639,2.643,2.6466,2.6557,2.6611,2.6633,2.6674,2.6743,2.6804,2.6812,2.6837,2.6859,2.6866,2.6756,2.6742,2.6728,2.6708,2.6864,2.6864,2.6977,2.6978,2.6979]},{"header":{"parameterUnit":"m.s-1","parameterCategory":1,"la1":30.2991,"la2":30.254,"lo1":-89.0895,"lo2":-89.0444,"dy":0.0017,"dx":0.0017,"nx":28,"ny":28,"refTime":"2025-08-13T09:00:00:Z","depth":0,"parameterNumber":3,"parameterNumberName":"V-component_of_WINDS"},"data":[0,0,0,0,0,0,0,0,0,0,0,0,0,0,0,0,0,0,0,0,0,0,0,0,0,0,0,0,0,0,0,0,0,0,0,0,0,0,0,0,0,0,0,0,0,0,0,0,0,0,0,0,0,0,0,0,0,0,-0.047,-0.047,0,-0.0461,-0.0461,-0.0461,-0.0474,-0.0474,-0.0475,-0.0475,-0.0464,-0.0463,-0.0462,0,0,0,0,0,0,0,0,0,0,0,0,0,-0.05,-0.0499,-0.047,-0.047,-0.047,-0.0461,-0.0461,-0.0461,-0.0474,-0.0474,-0.0475,-0.0476,-0.0464,-0.0463,-0.0462,0,0,0,0,0,0,0,0,0,0,0,0,0,-0.0488,-0.0499,-0.047,-0.0476,-0.0476,-0.0461,-0.0461,-0.046,-0.0474,-0.0474,-0.0475,-0.0476,-0.0464,-0.0463,-0.0462,-0.0441,0,0,-0.0459,-0.0458,0,0,0,0,0,0,0,0,-0.0489,-0.0487,-0.0475,-0.0475,-0.0476,-0.0469,-0.0467,-0.0454,-0.0474,-0.0475,-0.0475,-0.0476,-0.0465,-0.0464,-0.046,-0.044,-0.044,-0.0459,-0.0458,-0.0457,-0.0457,0,0,0,0,0,0,0,-0.0489,-0.0487,-0.0467,-0.0475,-0.0475,-0.0478,-0.0477,-0.0464,-0.0466,-0.0475,-0.0475,-0.0474,-0.0465,-0.0461,-0.046,-0.0439,-0.0459,-0.0458,-0.0457,-0.0456,-0.0401,-0.04,0,0,0,0,0,0,-0.049,-0.0488,-0.0467,-0.0466,-0.0484,-0.0477,-0.0476,-0.0471,-0.0466,-0.0466,-0.0474,-0.0475,-0.0463,-0.0461,-0.046,-0.0434,-0.0457,-0.0456,-0.0456,-0.0402,-0.0401,-0.04,0,0,0,0,0,0,-0.049,-0.0488,-0.0467,-0.0477,-0.0475,-0.0476,-0.0469,-0.047,-0.0466,-0.0465,-0.0465,-0.0469,-0.0463,-0.0461,-0.0445,-0.0434,-0.0456,-0.0455,-0.0403,-0.0402,-0.0401,-0.0383,0,0,0,0,0,0,-0.0491,-0.0488,-0.048,-0.0477,-0.0474,-0.0453,-0.0469,-0.0469,-0.0464,-0.0466,-0.0461,-0.0461,-0.0464,-0.0447,-0.0444,-0.0433,-0.0454,-0.0404,-0.0402,-0.0401,-0.0384,-0.0381,-0.0378,0,0,0,0,0,-0.0492,-0.0475,-0.0479,-0.0477,-0.0465,-0.0453,-0.0451,-0.0455,-0.0463,-0.0455,-0.0455,-0.0461,-0.0436,-0.0445,-0.0442,-0.043,-0.0405,-0.0403,-0.0401,-0.0386,-0.0382,-0.0378,0,0,0,0,0,0,-0.0475,-0.0475,-0.048,-0.0461,-0.0457,-0.0455,-0.0445,-0.045,-0.0443,-0.0445,-0.0449,-0.0448,-0.0431,-0.0429,-0.044,-0.0409,-0.0422,-0.0419,-0.0411,-0.0407,-0.0404,-0.0404,-0.0453,0,0,0,0,0,-0.047,-0.0461,-0.046,-0.0444,-0.0442,-0.0443,-0.0438,-0.0442,-0.0437,-0.0435,-0.0434,-0.0429,-0.042,-0.0414,-0.0405,-0.0385,-0.0384,-0.0375,-0.0372,-0.0369,-0.0367,-0.0356,-0.0352,-0.0394,-0.0394,-0.0394,0,0,-0.0458,-0.0456,-0.045,-0.044,-0.0438,-0.0428,-0.0442,-0.043,-0.0423,-0.0434,-0.0418,-0.0417,-0.0412,-0.0394,-0.0385,-0.0391,-0.0355,-0.0367,-0.0365,-0.0364,-0.0353,-0.0349,-0.0346,-0.0393,-0.0393,-0.0394,0,0,-0.043,-0.0428,-0.0414,-0.0411,-0.0407,-0.0409,-0.0406,-0.0403,-0.0403,-0.0388,-0.0395,-0.0387,-0.0371,-0.0367,-0.0363,-0.0335,-0.0341,-0.0332,-0.0316,-0.0305,-0.0301,-0.0298,-0.0288,-0.0284,-0.033,-0.033,-0.033,0,-0.0415,-0.0401,-0.0406,-0.0395,-0.039,-0.04,-0.0386,-0.0383,-0.0376,-0.0372,-0.038,-0.036,-0.0358,-0.0338,-0.0332,-0.0328,-0.0324,-0.0332,-0.0302,-0.0299,-0.0296,-0.0286,-0.0282,-0.0329,-0.0329,-0.0329,-0.0329,0,-0.0382,-0.0372,-0.0362,-0.0355,-0.035,-0.0337,-0.034,-0.0334,-0.0338,-0.0339,-0.0323,-0.0321,-0.0312,-0.0308,-0.0312,-0.0289,-0.0293,-0.0301,-0.0313,-0.0291,-0.0281,-0.0278,-0.0327,-0.0327,-0.0328,-0.0328,0,0,-0.0343,-0.0341,-0.0336,-0.0334,-0.033,-0.0322,-0.031,-0.0302,-0.0296,-0.0292,-0.0281,-0.0268,-0.0275,-0.0271,-0.0274,-0.0265,-0.0242,-0.0274,-0.0274,-0.0267,-0.0217,-0.0211,-0.0206,-0.0247,-0.0246,-0.0246,-0.0217,0,-0.0315,-0.0294,-0.0299,-0.0278,-0.0268,-0.0278,-0.0268,-0.0264,-0.0265,-0.0257,-0.0257,-0.0248,-0.0259,-0.0256,-0.0247,-0.0247,-0.0232,-0.0249,-0.0236,-0.0236,-0.0236,-0.0201,-0.0194,-0.0168,-0.0214,-0.0213,-0.0213,0,-0.0279,-0.0274,-0.0252,-0.025,-0.0246,-0.0237,-0.023,-0.0222,-0.0219,-0.022,-0.0215,-0.0221,-0.0208,-0.0222,-0.0204,-0.0216,-0.0211,-0.021,-0.0209,-0.0207,-0.0222,-0.0197,-0.0159,-0.0155,-0.0207,-0.0208,-0.0208,0,-0.0252,-0.0239,-0.0224,-0.0221,-0.0219,-0.0212,-0.0211,-0.0208,-0.0203,-0.0198,-0.0194,-0.0187,-0.0183,-0.0177,-0.018,-0.019,-0.0162,-0.0176,-0.0162,-0.0162,-0.0155,-0.0155,-0.0114,-0.0153,-0.0153,-0.0153,-0.0154,0,-0.0219,-0.0205,-0.0212,-0.0202,-0.0187,-0.0193,-0.0178,-0.0178,-0.0175,-0.0166,-0.0175,-0.0166,-0.0171,-0.0163,-0.0165,-0.015,-0.0149,-0.0149,-0.0149,-0.0147,-0.0147,-0.0143,-0.0145,-0.0152,-0.0153,-0.0153,-0.0153,0,-0.0185,-0.0189,-0.0174,-0.0173,-0.0173,-0.0162,-0.0161,-0.0153,-0.0154,-0.0143,-0.014,-0.0143,-0.0133,-0.0136,-0.0126,-0.0128,-0.0109,-0.0112,-0.011,-0.011,-0.0096,-0.0097,-0.0051,-0.0045,-0.0088,-0.0088,-0.0088,0,-0.0164,-0.0153,-0.0152,-0.0147,-0.0145,-0.0137,-0.0132,-0.0138,-0.0132,-0.0128,-0.012,-0.0111,-0.0104,-0.0089,-0.0089,-0.0082,-0.0084,-0.0069,-0.0083,-0.0082,-0.0083,-0.0083,-0.0082,-0.0065,-0.0065,-0.0065,-0.0064,0,-0.0125,-0.0128,-0.0121,-0.0114,-0.0109,-0.0104,-0.01,-0.0095,-0.01,-0.0094,-0.0085,-0.008,-0.0069,-0.0061,-0.0054,-0.0052,-0.0059,-0.006,-0.0056,-0.0053,-0.0052,-0.0052,-0.0101,-0.0061,-0.0061,-0.0061,-0.0061,-0.0062,-0.0096,-0.0088,-0.0085,-0.0077,-0.0075,-0.0071,-0.0063,-0.0064,-0.0057,-0.0049,-0.0053,-0.0042,-0.004,-0.0031,-0.0029,-0.002,-0.0026,-0.0021,-0.0019,-0.0018,-0.0015,-0.0055,-0.0019,-0.0019,-0.0019,-0.0019,-0.0019,0,-0.0058,-0.0057,-0.005,-0.0044,-0.0037,-0.0045,-0.0041,-0.0035,-0.0026,-0.0023,-0.0016,-0.0006,0.0003,0.0002,0.001,0.0017,0.0014,0.0019,0.0019,0.002,-0.0011,-0.0015,0.0021,0.0021,0.0021,0.0021,0.0021,0.0021,-0.0036,-0.0022,-0.0024,-0.0009,-0.0008,0.0002,0.0005,0.0009,0.0011,0.0023,0.003,0.0029,0.0031,0.0038,0.0045,0.0045,0.0049,0.0055,0.0054,0.0026,0.0022,0.0018,0.0015,0.0056,0.0056,0.0084,0.0084,0.0084]}]]